Change the Weather History Date:

Tuesday, December 9, 2014

  Actual Average Record
Temperature  
Mean Temperature 29 °F 32 °F  
Max Temperature 37 °F 38 °F 66 °F (1966)
Min Temperature 21 °F 25 °F -13 °F (1902)
Degree Days  
Heating Degree Days 36 33  
Month to date heating degree days 267 286  
Since 1 July heating degree days 1645 1688  
Cooling Degree Days 0 0  
Month to date cooling degree days 0 0  
Year to date cooling degree days 426 471  
Moisture  
Dew Point 32 °F    
Average Humidity 96    
Maximum Humidity 100    
Minimum Humidity 92    
Precipitation  
Precipitation 1.52 in 0.13 in 1.68 in (1973)
Month to date precipitation 3.26 1.20  
Year to date precipitation 51.94 45.45  
Sea Level Pressure  
Sea Level Pressure 29.96 in    
Wind  
Wind Speed 16 mph (NNE)    
Max Wind Speed 28 mph    
Max Gust Speed 43 mph    
Visibility 2 miles    
Events Fog , Rain , Snow    
T = Trace of Precipitation, MM = Missing Value Source: NWS Daily Summary

Daily Weather History Graph

Daily Weather History Graph

Search for Another Location

Airport or City:

Trip Planner

Search our weather history database for the weather conditions in past years. The results will help you decide how hot, cold, wet, or windy it might be!

Date:

Astronomy

Dec. 09, 2014 Rise Set
Actual Time 7:04 AM EST 4:15 PM EST
Civil Twilight 6:32 AM EST 4:46 PM EST
Nautical Twilight 5:57 AM EST 5:22 PM EST
Astronomical Twilight 5:23 AM EST 5:56 PM EST
Moon 7:33 PM EST (12/9) 9:13 AM EST (12/9)
Length of Visible Light 10h 13m
Length of Day
9h 10m
Waning Gibbous, 90% of the Moon is Illuminated
Dec 9
Waning Gibbous
Dec 14
Last Quarter
Dec 21
New
Dec 28
First Quarter
Jan 4
Full

Hourly Weather History & Observations

Time (EST) Temp. Windchill Dew Point Humidity Pressure Visibility Wind Dir Wind Speed Gust Speed Precip Events Conditions
12:54 AM 21.9 °F 11.7 °F 21.0 °F 96% 30.46 in 2.5 mi NE 9.2 mph - N/A   Overcast
1:16 AM 21.9 °F 11.0 °F 21.9 °F 100% 30.38 in 3.0 mi NE 10.4 mph - 0.00 in   Overcast
1:30 AM 21.9 °F 11.0 °F 21.9 °F 100% 30.38 in 2.5 mi NNE 10.4 mph - 0.00 in Rain Light Freezing Rain
1:42 AM 21.9 °F 10.4 °F 21.9 °F 100% 30.38 in 1.8 mi NNE 11.5 mph - 0.00 in Rain Light Freezing Rain
1:49 AM 21.2 °F 10.1 °F 21.2 °F 100% 30.39 in 2.5 mi NNE 10.4 mph - 0.00 in   Overcast
1:54 AM 23.0 °F 13.1 °F 21.9 °F 96% 30.45 in 2.5 mi NNE 9.2 mph - 0.00 in   Overcast
2:07 AM 23.0 °F 11.7 °F 23.0 °F 100% 30.38 in 1.8 mi NE 11.5 mph - 0.00 in Rain Light Freezing Rain
2:37 AM 24.1 °F 13.1 °F 23.0 °F 96% 30.35 in 1.2 mi NNE 11.5 mph 18.4 mph 0.00 in   Overcast
2:54 AM 24.1 °F 13.1 °F 24.1 °F 100% 30.39 in 1.0 mi NNE 11.5 mph - 0.00 in Rain Light Freezing Rain
3:01 AM 24.1 °F 14.4 °F 24.1 °F 100% 30.33 in 0.8 mi NNE 9.2 mph - 0.00 in Rain Light Freezing Rain
3:39 AM 25.0 °F 14.8 °F 25.0 °F 100% 30.34 in 1.0 mi NNE 10.4 mph - 0.01 in   Mist
3:54 AM 25.0 °F 13.6 °F 25.0 °F 100% 30.37 in 1.0 mi NNE 12.7 mph - 0.01 in Rain Light Freezing Rain
4:37 AM 27.0 °F 16.1 °F 27.0 °F 100% 30.30 in 0.8 mi NNE 12.7 mph 19.6 mph 0.00 in Rain Light Freezing Rain
4:54 AM 27.0 °F 17.3 °F 27.0 °F 100% 30.34 in 0.8 mi NE 10.4 mph - 0.01 in Rain Light Freezing Rain
5:13 AM 27.0 °F 17.3 °F 27.0 °F 100% 30.29 in 1.0 mi NE 10.4 mph - 0.01 in Rain Light Freezing Rain
5:30 AM 28.0 °F 19.3 °F 28.0 °F 100% 30.27 in 0.8 mi NE 9.2 mph - 0.01 in Rain Light Freezing Rain
5:54 AM 28.0 °F 20.0 °F 28.0 °F 100% 30.30 in 0.5 mi NE 8.1 mph - 0.01 in Fog , Rain Light Freezing Rain
6:07 AM 28.0 °F 18.1 °F 28.0 °F 100% 30.25 in 0.2 mi NE 11.5 mph 17.3 mph 0.01 in Fog , Rain Light Freezing Rain
6:24 AM 28.0 °F 19.3 °F 28.0 °F 100% 30.23 in 0.2 mi NE 9.2 mph - 0.03 in Fog , Rain Light Freezing Rain
6:34 AM 28.0 °F 19.3 °F 28.0 °F 100% 30.24 in 0.2 mi NE 9.2 mph 19.6 mph 0.03 in Fog Light Freezing Fog
6:54 AM 28.9 °F 18.2 °F 28.9 °F 100% 30.28 in 0.2 mi NNE 13.8 mph 20.7 mph 0.03 in Fog , Rain Light Freezing Rain
7:12 AM 28.0 °F 17.0 °F 28.0 °F 100% 30.20 in 0.2 mi NNE 13.8 mph 19.6 mph 0.00 in Fog Light Freezing Fog
7:20 AM 28.0 °F 16.5 °F 28.0 °F 100% 30.20 in 0.2 mi NNE 15.0 mph 20.7 mph 0.00 in Fog , Rain Light Freezing Rain
7:54 AM 28.9 °F 20.4 °F 28.9 °F 100% 30.24 in 0.2 mi NE 9.2 mph 19.6 mph 0.00 in Fog , Rain Light Freezing Rain
8:54 AM 30.9 °F 21.2 °F 30.9 °F 100% 30.21 in 0.5 mi NNE 12.7 mph 21.9 mph 0.06 in Fog , Rain Light Freezing Rain
9:15 AM 30.9 °F 20.7 °F 30.9 °F 100% 30.16 in 0.5 mi NNE 13.8 mph 20.7 mph 0.02 in Fog , Rain Light Freezing Rain
9:41 AM 30.9 °F 20.7 °F 30.9 °F 100% 30.15 in 1.0 mi NE 13.8 mph 23.0 mph 0.06 in Rain Light Freezing Rain
9:49 AM 30.2 °F 19.8 °F 30.2 °F 100% 30.14 in 1.0 mi NE 13.8 mph 23.0 mph N/A Rain Light Freezing Rain
9:54 AM 30.9 °F 20.7 °F 30.9 °F 100% 30.19 in 1.0 mi NNE 13.8 mph 21.9 mph 0.08 in Rain Light Freezing Rain
10:11 AM 32.0 °F 23.0 °F 32.0 °F 100% 30.13 in 0.8 mi NE 11.5 mph 23.0 mph 0.04 in Rain Light Freezing Rain
10:20 AM 32.0 °F 22.1 °F 32.0 °F 100% 30.12 in 1.2 mi NNE 13.8 mph 20.7 mph 0.06 in Rain Light Freezing Rain
10:54 AM 32.0 °F 21.2 °F 32.0 °F 100% 30.12 in 0.8 mi NNE 16.1 mph 23.0 mph 0.13 in Rain Light Freezing Rain
11:03 AM 32.0 °F 20.8 °F 32.0 °F 100% 30.06 in 2.0 mi NNE 17.3 mph 29.9 mph 0.03 in Rain Light Freezing Rain
11:27 AM 32.0 °F 20.5 °F 32.0 °F 100% 30.02 in 1.2 mi NE 18.4 mph 33.4 mph 0.08 in Rain Light Freezing Rain
11:47 AM 32.0 °F 20.8 °F 32.0 °F 100% 29.99 in 1.5 mi NNE 17.3 mph 31.1 mph 0.13 in   Overcast
11:54 AM 32.0 °F 20.8 °F 32.0 °F 100% 30.03 in 2.0 mi NNE 17.3 mph 31.1 mph 0.15 in   Overcast
12:19 PM 33.1 °F 21.5 °F 33.1 °F 100% 29.95 in 1.8 mi NNE 19.6 mph 29.9 mph 0.07 in Rain Rain
12:29 PM 33.1 °F 22.6 °F 33.1 °F 100% 29.93 in 2.0 mi NE 16.1 mph 33.4 mph 0.09 in Rain Rain
12:54 PM 33.1 °F 21.2 °F 33.1 °F 100% 29.94 in 2.0 mi NNE 20.7 mph 31.1 mph 0.18 in Rain Heavy Rain
1:54 PM 34.0 °F 22.4 °F 34.0 °F 100% 29.86 in 2.0 mi NNE 20.7 mph 35.7 mph 0.21 in Rain Heavy Rain
2:16 PM 33.8 °F 22.2 °F 33.8 °F 100% 29.80 in 1.8 mi NNE 20.7 mph 34.5 mph N/A Rain Heavy Rain
2:28 PM 34.0 °F 22.4 °F 34.0 °F 100% 29.78 in 2.0 mi NNE 20.7 mph 34.5 mph 0.15 in Rain Heavy Rain
2:45 PM 35.1 °F 23.3 °F 35.1 °F 100% 29.75 in 1.8 mi NNE 23.0 mph 36.8 mph 0.23 in Rain Heavy Rain
2:54 PM 35.1 °F 23.0 °F 35.1 °F 100% 29.77 in 2.0 mi NNE 24.2 mph 39.1 mph 0.28 in Rain Heavy Rain
3:01 PM 35.1 °F 22.5 °F 35.1 °F 100% 29.73 in 1.5 mi NNE 26.5 mph 40.3 mph 0.02 in Rain Heavy Rain
3:18 PM 36.0 °F 23.9 °F 35.1 °F 97% 29.71 in 2.0 mi NNE 25.3 mph 41.4 mph 0.08 in Rain Rain
3:43 PM 36.0 °F 24.4 °F 36.0 °F 100% 29.71 in 1.8 mi NE 23.0 mph 35.7 mph 0.14 in Rain Rain
3:52 PM 35.6 °F 24.0 °F 35.6 °F 100% 29.69 in 2.0 mi NE 23.0 mph 36.8 mph 0.15 in Rain Light Rain
3:54 PM 36.0 °F 25.3 °F 36.0 °F 100% 29.73 in 2.0 mi NE 19.6 mph 36.8 mph 0.16 in Rain Light Rain
4:09 PM 37.0 °F 27.7 °F 36.0 °F 96% 29.68 in 3.0 mi NE 16.1 mph 38.0 mph 0.01 in Rain Light Rain
4:19 PM 37.0 °F 25.6 °F 36.0 °F 96% 29.67 in 2.5 mi NE 24.2 mph 39.1 mph 0.03 in Rain Rain
4:27 PM 37.0 °F 25.9 °F 36.0 °F 96% 29.66 in 4.0 mi NE 23.0 mph 41.4 mph 0.03 in Rain Light Rain
4:54 PM 37.0 °F 26.4 °F 37.0 °F 100% 29.68 in 4.0 mi NE 20.7 mph 38.0 mph 0.06 in Rain Rain
5:54 PM 37.0 °F 26.7 °F 37.0 °F 100% 29.63 in 3.0 mi NNE 19.6 mph 34.5 mph 0.04 in Rain Light Rain
6:10 PM 37.0 °F 26.4 °F 37.0 °F 100% 29.59 in 2.5 mi NE 20.7 mph 34.5 mph 0.02 in Snow Light Snow
6:54 PM 37.0 °F 25.4 °F 37.0 °F 100% 29.60 in 3.0 mi NNE 25.3 mph 39.1 mph 0.04 in Rain Light Rain
7:06 PM 37.0 °F 25.9 °F 37.0 °F 100% 29.55 in 2.5 mi NNE 23.0 mph 39.1 mph 0.01 in Snow Light Snow
7:31 PM 37.0 °F 25.4 °F 37.0 °F 100% 29.54 in 3.0 mi NNE 25.3 mph 38.0 mph 0.03 in   Overcast
7:42 PM 37.0 °F 26.4 °F 37.0 °F 100% 29.54 in 4.0 mi NNE 20.7 mph 36.8 mph 0.03 in   Overcast
7:54 PM 37.0 °F 26.7 °F 37.0 °F 100% 29.57 in 3.0 mi NNE 19.6 mph 33.4 mph 0.04 in   Overcast
8:12 PM 37.0 °F 25.9 °F 37.0 °F 100% 29.53 in 2.5 mi NNE 23.0 mph 38.0 mph 0.00 in   Overcast
8:26 PM 37.0 °F 26.7 °F 37.0 °F 100% 29.53 in 3.0 mi NNE 19.6 mph 34.5 mph 0.00 in   Overcast
8:44 PM 37.0 °F 26.2 °F 37.0 °F 100% 29.53 in 2.5 mi NNE 21.9 mph 35.7 mph 0.00 in   Overcast
8:54 PM 37.0 °F 25.9 °F 37.0 °F 100% 29.56 in 2.5 mi NNE 23.0 mph 34.5 mph 0.00 in   Overcast
9:20 PM 37.0 °F 25.9 °F 37.0 °F 100% 29.52 in 3.0 mi North 23.0 mph 32.2 mph 0.01 in Rain Light Rain
9:36 PM 37.0 °F 26.7 °F 37.0 °F 100% 29.52 in 2.5 mi North 19.6 mph 29.9 mph 0.01 in   Overcast
9:49 PM 37.4 °F 26.9 °F 37.4 °F 100% 29.52 in 2.5 mi North 20.7 mph 29.9 mph 0.02 in   Overcast
9:54 PM 37.0 °F 27.0 °F 37.0 °F 100% 29.55 in 2.5 mi North 18.4 mph 29.9 mph 0.02 in   Overcast
10:54 PM 37.0 °F 27.0 °F 36.0 °F 96% 29.56 in 2.5 mi North 18.4 mph 26.5 mph 0.01 in   Overcast
11:54 PM 37.0 °F 27.7 °F 37.0 °F 100% 29.56 in 2.5 mi North 16.1 mph 24.2 mph 0.00 in   Overcast